Вернуться в каталог

STARLINK-4656

АктивенСвязьVLEO
NORAD 53745·PAYLOAD·🇺🇸 United States

Запущен Sep 5, 2022 с Cape Canaveral Space Force Station

Loading…

Ближайшие Пролёты (ближайшие 24 часа)

TLE

СвежийSource: CelesTrak SupGP

Эпоха: Sep 14, 2026, 21:20 UTC

1 53745C 22107AX  26257.88937500 -.00023471  00000+0 -69353-3 0  2572
2 53745  53.1565 119.8638 0001260  86.8755 130.9627 15.34398627    12

Отслеживайте STARLINK-4656 в реальном времени с AllMySat

Download on the App Store